Time,TemperatureF,DewpointF,PressureIn,WindDirection,WindDirectionDegrees,WindSpeedMPH,WindSpeedGustMPH,Humidity,HourlyPrecipIn,Conditions,Clouds,dailyrainin,SolarRadiationWatts/m^2,SoftwareType,DateUTC
2013-03-05 00:02:00,43.0,27.0,-100.00,East,83,3.0,6.0,53,0.00,,,0.00,0.000000,,2013-03-05 08:02:00,
2013-03-05 00:11:00,43.0,27.0,-100.00,East,83,3.0,6.0,53,0.00,,,0.00,0.000000,,2013-03-05 08:11:00,
2013-03-05 00:21:00,43.0,27.0,-100.00,East,83,3.0,6.0,53,0.00,,,0.00,0.000000,,2013-03-05 08:21:00,
2013-03-05 00:52:00,41.0,23.0,-100.00,NW,324,2.0,6.0,49,0.00,,,0.00,0.000000,,2013-03-05 08:52:00,
2013-03-05 01:11:00,41.0,23.0,-100.00,NW,324,2.0,6.0,49,0.00,,,0.00,0.000000,,2013-03-05 09:11:00,
2013-03-05 01:21:00,41.0,23.0,-100.00,NW,324,2.0,6.0,49,0.00,,,0.00,0.000000,,2013-03-05 09:21:00,
2013-03-05 01:52:00,41.0,22.0,-100.00,NNW,333,1.0,6.0,47,0.00,,,0.00,0.000000,,2013-03-05 09:52:00,
2013-03-05 02:01:00,41.0,22.0,-100.00,NNW,333,1.0,6.0,47,0.00,,,0.00,0.000000,,2013-03-05 10:01:00,
2013-03-05 02:11:00,41.0,22.0,-100.00,NNW,333,1.0,6.0,47,0.00,,,0.00,0.000000,,2013-03-05 10:11:00,
2013-03-05 02:21:00,41.0,22.0,-100.00,NNW,333,1.0,6.0,47,0.00,,,0.00,0.000000,,2013-03-05 10:21:00,
2013-03-05 02:52:00,41.0,23.0,-100.00,NNW,337,0.0,5.0,49,0.00,,,0.00,0.000000,,2013-03-05 10:52:00,
2013-03-05 03:01:00,41.0,23.0,-100.00,NNW,337,0.0,5.0,49,0.00,,,0.00,0.000000,,2013-03-05 11:01:00,
2013-03-05 03:11:00,41.0,23.0,-100.00,NNW,337,0.0,5.0,49,0.00,,,0.00,0.000000,,2013-03-05 11:11:00,
2013-03-05 03:21:00,41.0,23.0,-100.00,NNW,337,0.0,5.0,49,0.00,,,0.00,0.000000,,2013-03-05 11:21:00,
2013-03-05 03:52:00,42.0,25.0,-100.00,NW,321,2.0,4.0,51,0.00,,,0.00,0.000000,,2013-03-05 11:52:00,
2013-03-05 04:02:00,42.0,25.0,-100.00,NW,321,2.0,4.0,51,0.00,,,0.00,0.000000,,2013-03-05 12:02:00,
2013-03-05 04:11:00,42.0,25.0,-100.00,NW,321,2.0,4.0,51,0.00,,,0.00,0.000000,,2013-03-05 12:11:00,
2013-03-05 04:22:00,42.0,25.0,-100.00,NW,321,2.0,4.0,51,0.00,,,0.00,0.000000,,2013-03-05 12:22:00,
2013-03-05 04:52:00,40.0,24.0,-100.00,NW,316,1.0,5.0,52,0.00,,,0.00,0.000000,,2013-03-05 12:52:00,
2013-03-05 05:02:00,40.0,24.0,-100.00,NW,316,1.0,5.0,52,0.00,,,0.00,0.000000,,2013-03-05 13:02:00,
2013-03-05 05:11:00,40.0,24.0,-100.00,NW,316,1.0,5.0,52,0.00,,,0.00,0.000000,,2013-03-05 13:11:00,
2013-03-05 05:21:00,40.0,24.0,-100.00,NW,316,1.0,5.0,52,0.00,,,0.00,0.000000,,2013-03-05 13:21:00,
2013-03-05 05:52:00,41.0,25.0,-100.00,NNW,327,0.0,4.0,52,0.00,,,0.00,0.000000,,2013-03-05 13:52:00,
2013-03-05 06:02:00,41.0,25.0,-100.00,NNW,327,0.0,4.0,52,0.00,,,0.00,0.000000,,2013-03-05 14:02:00,
2013-03-05 06:11:00,41.0,25.0,-100.00,NNW,327,0.0,4.0,52,0.00,,,0.00,0.000000,,2013-03-05 14:11:00,
2013-03-05 06:21:00,41.0,25.0,-100.00,NNW,327,0.0,4.0,52,0.00,,,0.00,0.000000,,2013-03-05 14:21:00,
2013-03-05 06:52:00,39.0,26.0,-100.00,NNW,335,0.0,5.0,60,0.00,,,0.00,0.000000,,2013-03-05 14:52:00,
2013-03-05 07:01:00,39.0,26.0,-100.00,NNW,335,0.0,5.0,60,0.00,,,0.00,0.000000,,2013-03-05 15:01:00,
2013-03-05 07:11:00,39.0,26.0,-100.00,NNW,335,0.0,5.0,60,0.00,,,0.00,0.000000,,2013-03-05 15:11:00,
2013-03-05 07:21:00,39.0,26.0,-100.00,NNW,335,0.0,5.0,60,0.00,,,0.00,0.000000,,2013-03-05 15:21:00,
2013-03-05 07:52:00,50.0,31.0,-100.00,ESE,111,3.0,6.0,47,0.00,,,0.00,93.000000,,2013-03-05 15:52:00,
2013-03-05 08:01:00,50.0,31.0,-100.00,ESE,111,3.0,6.0,47,0.00,,,0.00,93.000000,,2013-03-05 16:01:00,
2013-03-05 08:11:00,50.0,31.0,-100.00,ESE,111,3.0,6.0,47,0.00,,,0.00,93.000000,,2013-03-05 16:11:00,
2013-03-05 08:21:00,50.0,31.0,-100.00,ESE,111,3.0,6.0,47,0.00,,,0.00,93.000000,,2013-03-05 16:21:00,
2013-03-05 08:52:00,53.0,29.0,-100.00,ESE,116,5.0,10.0,39,0.00,,,0.00,305.000000,,2013-03-05 16:52:00,
2013-03-05 09:01:00,53.0,29.0,-100.00,ESE,116,5.0,10.0,39,0.00,,,0.00,305.000000,,2013-03-05 17:01:00,
2013-03-05 09:11:00,53.0,29.0,-100.00,ESE,116,5.0,10.0,39,0.00,,,0.00,305.000000,,2013-03-05 17:11:00,
2013-03-05 09:21:00,53.0,29.0,-100.00,ESE,116,5.0,10.0,39,0.00,,,0.00,305.000000,,2013-03-05 17:21:00,
2013-03-05 09:52:00,58.0,26.0,-100.00,ESE,121,6.0,14.0,29,0.00,,,0.00,222.000000,,2013-03-05 17:52:00,
2013-03-05 10:01:00,58.0,26.0,-100.00,ESE,121,6.0,14.0,29,0.00,,,0.00,222.000000,,2013-03-05 18:01:00,
2013-03-05 10:11:00,58.0,26.0,-100.00,ESE,121,6.0,14.0,29,0.00,,,0.00,222.000000,,2013-03-05 18:11:00,
2013-03-05 10:21:00,58.0,26.0,-100.00,ESE,121,6.0,14.0,29,0.00,,,0.00,222.000000,,2013-03-05 18:21:00,
2013-03-05 10:53:00,57.0,25.0,-100.00,SE,128,9.0,17.0,29,0.00,,,0.00,481.000000,,2013-03-05 18:53:00,
2013-03-05 11:01:00,57.0,25.0,-100.00,SE,128,9.0,17.0,29,0.00,,,0.00,481.000000,,2013-03-05 19:01:00,
2013-03-05 11:11:00,57.0,25.0,-100.00,SE,128,9.0,17.0,29,0.00,,,0.00,481.000000,,2013-03-05 19:11:00,
2013-03-05 11:21:00,57.0,25.0,-100.00,SE,128,9.0,17.0,29,0.00,,,0.00,481.000000,,2013-03-05 19:21:00,
2013-03-05 11:52:00,60.0,28.0,-100.00,ESE,123,9.0,19.0,30,0.00,,,0.00,875.000000,,2013-03-05 19:52:00,
2013-03-05 12:01:00,60.0,28.0,-100.00,ESE,123,9.0,19.0,30,0.00,,,0.00,875.000000,,2013-03-05 20:01:00,
2013-03-05 12:11:00,60.0,28.0,-100.00,ESE,123,9.0,19.0,30,0.00,,,0.00,875.000000,,2013-03-05 20:11:00,
2013-03-05 12:21:00,60.0,28.0,-100.00,ESE,123,9.0,19.0,30,0.00,,,0.00,875.000000,,2013-03-05 20:21:00,
2013-03-05 12:52:00,59.0,25.0,-100.00,SE,136,8.0,21.0,27,0.00,,,0.00,931.000000,,2013-03-05 20:52:00,
2013-03-05 13:01:00,59.0,25.0,-100.00,SE,136,8.0,21.0,27,0.00,,,0.00,931.000000,,2013-03-05 21:01:00,
2013-03-05 13:11:00,59.0,25.0,-100.00,SE,136,8.0,21.0,27,0.00,,,0.00,931.000000,,2013-03-05 21:11:00,
2013-03-05 13:21:00,59.0,25.0,-100.00,SE,136,8.0,21.0,27,0.00,,,0.00,931.000000,,2013-03-05 21:21:00,
2013-03-05 13:52:00,60.0,24.0,-100.00,SE,125,8.0,19.0,25,0.00,,,0.00,910.000000,,2013-03-05 21:52:00,
2013-03-05 14:01:00,60.0,24.0,-100.00,SE,125,8.0,19.0,25,0.00,,,0.00,910.000000,,2013-03-05 22:01:00,
2013-03-05 14:11:00,60.0,24.0,-100.00,SE,125,8.0,19.0,25,0.00,,,0.00,910.000000,,2013-03-05 22:11:00,
2013-03-05 14:21:00,60.0,24.0,-100.00,SE,125,8.0,19.0,25,0.00,,,0.00,910.000000,,2013-03-05 22:21:00,
2013-03-05 14:52:00,60.0,18.0,-100.00,SE,125,9.0,24.0,19,0.00,,,0.00,816.000000,,2013-03-05 22:52:00,
2013-03-05 15:01:00,60.0,18.0,-100.00,SE,125,9.0,24.0,19,0.00,,,0.00,816.000000,,2013-03-05 23:01:00,
2013-03-05 15:11:00,60.0,18.0,-100.00,SE,125,9.0,24.0,19,0.00,,,0.00,816.000000,,2013-03-05 23:11:00,
2013-03-05 15:21:00,60.0,18.0,-100.00,SE,125,9.0,24.0,19,0.00,,,0.00,816.000000,,2013-03-05 23:21:00,
2013-03-05 15:52:00,59.0,16.0,-100.00,SE,129,14.0,28.0,18,0.00,,,0.00,654.000000,,2013-03-05 23:52:00,
2013-03-05 16:01:00,59.0,16.0,-100.00,SE,129,14.0,28.0,18,0.00,,,0.00,654.000000,,2013-03-06 00:01:00,
2013-03-05 16:11:00,59.0,16.0,-100.00,SE,129,14.0,28.0,18,0.00,,,0.00,654.000000,,2013-03-06 00:11:00,
2013-03-05 16:21:00,59.0,16.0,-100.00,SE,129,14.0,28.0,18,0.00,,,0.00,654.000000,,2013-03-06 00:21:00,
2013-03-05 16:52:00,58.0,15.0,-100.00,SE,124,12.0,31.0,18,0.00,,,0.00,441.000000,,2013-03-06 00:52:00,
2013-03-05 17:01:00,58.0,15.0,-100.00,SE,124,12.0,31.0,18,0.00,,,0.00,441.000000,,2013-03-06 01:01:00,
2013-03-05 17:11:00,58.0,15.0,-100.00,SE,124,12.0,31.0,18,0.00,,,0.00,441.000000,,2013-03-06 01:11:00,
2013-03-05 17:21:00,58.0,15.0,-100.00,SE,124,12.0,31.0,18,0.00,,,0.00,441.000000,,2013-03-06 01:21:00,
2013-03-05 17:52:00,53.0,11.0,-100.00,NNE,22,3.0,21.0,18,0.00,,,0.00,105.000000,,2013-03-06 01:52:00,
2013-03-05 18:01:00,53.0,11.0,-100.00,NNE,22,3.0,21.0,18,0.00,,,0.00,105.000000,,2013-03-06 02:01:00,
2013-03-05 18:11:00,53.0,11.0,-100.00,NNE,22,3.0,21.0,18,0.00,,,0.00,105.000000,,2013-03-06 02:11:00,
2013-03-05 18:21:00,53.0,11.0,-100.00,NNE,22,3.0,21.0,18,0.00,,,0.00,105.000000,,2013-03-06 02:21:00,
2013-03-05 18:52:00,47.0,28.0,-100.00,SE,127,4.0,9.0,47,0.00,,,0.00,6.000000,,2013-03-06 02:52:00,
2013-03-05 19:01:00,47.0,28.0,-100.00,SE,127,4.0,9.0,47,0.00,,,0.00,6.000000,,2013-03-06 03:01:00,
2013-03-05 19:11:00,47.0,28.0,-100.00,SE,127,4.0,9.0,47,0.00,,,0.00,6.000000,,2013-03-06 03:11:00,
2013-03-05 19:21:00,47.0,28.0,-100.00,SE,127,4.0,9.0,47,0.00,,,0.00,6.000000,,2013-03-06 03:21:00,
2013-03-05 19:52:00,44.0,27.0,-100.00,North,353,2.0,12.0,50,0.00,,,0.00,0.000000,,2013-03-06 03:52:00,
2013-03-05 20:01:00,44.0,27.0,-100.00,North,353,2.0,12.0,50,0.00,,,0.00,0.000000,,2013-03-06 04:01:00,
2013-03-05 20:11:00,44.0,27.0,-100.00,North,353,2.0,12.0,50,0.00,,,0.00,0.000000,,2013-03-06 04:11:00,
2013-03-05 20:21:00,44.0,27.0,-100.00,North,353,2.0,12.0,50,0.00,,,0.00,0.000000,,2013-03-06 04:21:00,
2013-03-05 20:52:00,44.0,26.0,-100.00,West,279,5.0,11.0,49,0.00,,,0.00,0.000000,,2013-03-06 04:52:00,
2013-03-05 21:01:00,44.0,26.0,-100.00,West,279,5.0,11.0,49,0.00,,,0.00,0.000000,,2013-03-06 05:01:00,
2013-03-05 21:11:00,44.0,26.0,-100.00,West,279,5.0,11.0,49,0.00,,,0.00,0.000000,,2013-03-06 05:11:00,
2013-03-05 21:22:00,44.0,26.0,-100.00,West,279,5.0,11.0,49,0.00,,,0.00,0.000000,,2013-03-06 05:22:00,
2013-03-05 21:52:00,42.0,24.0,-100.00,ESE,121,3.0,11.0,48,0.00,,,0.00,0.000000,,2013-03-06 05:52:00,
2013-03-05 22:01:00,42.0,24.0,-100.00,ESE,121,3.0,11.0,48,0.00,,,0.00,0.000000,,2013-03-06 06:01:00,
2013-03-05 22:11:00,42.0,24.0,-100.00,ESE,121,3.0,11.0,48,0.00,,,0.00,0.000000,,2013-03-06 06:11:00,
2013-03-05 22:22:00,42.0,24.0,-100.00,ESE,121,3.0,11.0,48,0.00,,,0.00,0.000000,,2013-03-06 06:22:00,
2013-03-05 22:52:00,42.0,25.0,-100.00,NW,324,6.0,12.0,50,0.00,,,0.00,0.000000,,2013-03-06 06:52:00,
2013-03-05 23:01:00,42.0,25.0,-100.00,NW,324,6.0,12.0,50,0.00,,,0.00,0.000000,,2013-03-06 07:01:00,
2013-03-05 23:11:00,42.0,25.0,-100.00,NW,324,6.0,12.0,50,0.00,,,0.00,0.000000,,2013-03-06 07:11:00,
2013-03-05 23:21:00,42.0,25.0,-100.00,NW,324,6.0,12.0,50,0.00,,,0.00,0.000000,,2013-03-06 07:21:00,
2013-03-05 23:52:00,39.0,23.0,-100.00,NW,312,7.0,14.0,52,0.00,,,0.00,0.000000,,2013-03-06 07:52:00,